WetterOnline ( https://www.wetteronline.de )

Wetter aktuell Friesack

Aktuelles Wetter: Kyritz (42m)

6-stündlich | Neueste Meldungen
Ortszeit Temperatur Wetter
Fr, 27.11. 7:00 5.1° C Nebel
Fr, 27.11. 1:00 6.5° C bedeckt
Do, 26.11. 19:00 7.1° C bewölkt
Do, 26.11. 13:00 6.6° C Sprühregen
Do, 26.11. 7:00 1.0° C bedeckt
Do, 26.11. 1:00 -1.0° C Nebel
Mi, 25.11. 19:00 2.5° C bedeckt
Mi, 25.11. 13:00 1.7° C bedeckt
Ortszeit Temperatur Wetter
Fr, 27.11. 8:00 4.9° C Nebel
Fr, 27.11. 7:50 4.9° C Nebel
Fr, 27.11. 7:40 4.9° C Nebel
Fr, 27.11. 7:30 5.0° C Nebel
Fr, 27.11. 7:20 5.0° C Nebel
Fr, 27.11. 7:10 5.0° C Nebel
Fr, 27.11. 7:00 5.1° C Nebel
Fr, 27.11. 6:30 5.1° C Nebel
Fr, 27.11. 6:00 5.2° C Nebel
Fr, 27.11. 5:30 5.2° C Nebel
Fr, 27.11. 5:00 5.3° C Nebel
Ortszeit Relative Feuchte Sichtweite
Fr, 27.11. 7:00 99% 0.4 km
Fr, 27.11. 1:00 99% 1.3 km
Do, 26.11. 19:00 97% 3.5 km
Do, 26.11. 13:00 96% 4.0 km
Do, 26.11. 7:00 98% 4.4 km
Do, 26.11. 1:00 99% 100 m
Mi, 25.11. 19:00 99% 2.5 km
Mi, 25.11. 13:00 99% 1.3 km
Ortszeit Relative Feuchte Sichtweite
Fr, 27.11. 8:00 99% 0.4 km
Fr, 27.11. 7:50 99% -
Fr, 27.11. 7:40 99% -
Fr, 27.11. 7:30 99% 0.2 km
Fr, 27.11. 7:20 99% -
Fr, 27.11. 7:10 99% -
Fr, 27.11. 7:00 99% 0.4 km
Fr, 27.11. 6:30 99% 0.3 km
Fr, 27.11. 6:00 99% 0.4 km
Fr, 27.11. 5:30 99% 0.3 km
Fr, 27.11. 5:00 99% 0.2 km
Ortszeit Niederschlagsmenge Niederschlagsart
Fr, 27.11. 7:00 0.0 l/m2 in 12 Std. -
Fr, 27.11. 1:00 0.0 l/m2 in 6 Std. -
Do, 26.11. 19:00 0.5 l/m2 in 12 Std. Regen
Do, 26.11. 13:00 0.4 l/m2 in 6 Std. Regen
Do, 26.11. 7:00 0.0 l/m2 in 12 Std. -
Do, 26.11. 1:00 0.0 l/m2 in 6 Std. -
Mi, 25.11. 19:00 0.0 l/m2 in 12 Std. -
Mi, 25.11. 13:00 0.0 l/m2 in 6 Std. -
Ortszeit Niederschlagsmenge Niederschlagsart
Fr, 27.11. 8:00 0.0 l/m2 in 1 Std. -
Fr, 27.11. 7:50 keine Meldung -
Fr, 27.11. 7:40 keine Meldung -
Fr, 27.11. 7:30 0.0 l/m2 in 1 Std. -
Fr, 27.11. 7:20 keine Meldung -
Fr, 27.11. 7:10 keine Meldung -
Fr, 27.11. 7:00 0.0 l/m2 in 1 Std. -
Fr, 27.11. 6:30 0.0 l/m2 in 1 Std. -
Fr, 27.11. 6:00 0.0 l/m2 in 1 Std. -
Fr, 27.11. 5:30 0.0 l/m2 in 1 Std. -
Fr, 27.11. 5:00 0.0 l/m2 in 1 Std. -
Ortszeit Stärke Spitze Richtung
km/h Bft. km/h Grad Sektor
Fr, 27.11. 7:00 4 1 11 30° NO
Fr, 27.11. 1:00 7 2 14 280° W
Do, 26.11. 19:00 9 2 22 270° W
Do, 26.11. 13:00 11 2 22 240° SW
Do, 26.11. 7:00 4 1 11 200° S
Do, 26.11. 1:00 4 1 14 190° S
Mi, 25.11. 19:00 7 2 22 160° S
Mi, 25.11. 13:00 11 2 20 180° S
Ortszeit Stärke Spitze Richtung
km/h Bft. km/h Grad Sektor
Fr, 27.11. 8:00 4 1 7 60° NO
Fr, 27.11. 7:50 4 1 - 60° NO
Fr, 27.11. 7:40 4 1 - 60° NO
Fr, 27.11. 7:30 2 1 6 60° NO
Fr, 27.11. 7:20 2 1 - 60° NO
Fr, 27.11. 7:10 4 1 - 60° NO
Fr, 27.11. 7:00 4 1 7 30° NO
Fr, 27.11. 6:30 4 1 4 10° N
Fr, 27.11. 6:00 4 1 7 20° N
Fr, 27.11. 5:30 0 0 4 - -
Fr, 27.11. 5:00 0 0 7 - -
Ortszeit Untergrenze Bedeckung Gattung
total tief tief mittel hoch
Fr, 27.11. 7:00 <30 m 8/8 0/8 - - -
Fr, 27.11. 1:00 30 m 8/8 8/8 - - -
Do, 26.11. 19:00 390 m 8/8 4/8 - - -
Do, 26.11. 13:00 210 m 8/8 8/8 - - -
Do, 26.11. 7:00 240 m 8/8 8/8 - - -
Do, 26.11. 1:00 <30 m 8/8 0/8 - - -
Mi, 25.11. 19:00 60 m 8/8 8/8 - - -
Mi, 25.11. 13:00 30 m 8/8 8/8 - - -
Ortszeit Bedeckungsgrad in Achtel und Wolkenuntergrenze
Fr, 27.11. 8:00 8(30m) 8(2100m)
Fr, 27.11. 7:50 8(30m) 8(2100m)
Fr, 27.11. 7:40 8(30m) 8(2100m)
Fr, 27.11. 7:30 8(<30m) 8(2100m)
Fr, 27.11. 7:20 8(<30m)
Fr, 27.11. 7:10 8(<30m) 8(2100m)
Fr, 27.11. 7:00 8(<30m)
Fr, 27.11. 6:30 8(<30m) 8(2100m)
Fr, 27.11. 6:00 8(<30m) 8(1800m)
Fr, 27.11. 5:30 8(<30m) 8(1800m)
Fr, 27.11. 5:00 8(<30m) 8(2100m)
Ortszeit Luftdruck NN (hPa) Tendenz (hPa in 3 Std.)
Fr, 27.11. 7:00 1021 + 0,3
Fr, 27.11. 1:00 1021 + 0,1
Do, 26.11. 19:00 1020 + 0,9
Do, 26.11. 13:00 1019 - 0,3
Do, 26.11. 7:00 1019 - 0,2
Do, 26.11. 1:00 1020 + 0,2
Mi, 25.11. 19:00 1019 + 0,1
Mi, 25.11. 13:00 1020 - 0,9
Ortszeit Luftdruck NN (hPa) Tendenz (hPa in 3 Std.)
Fr, 27.11. 8:00 1022 + 0,8
Fr, 27.11. 7:50 1022 keine Meldung
Fr, 27.11. 7:40 1022 keine Meldung
Fr, 27.11. 7:30 1022 + 0,6
Fr, 27.11. 7:20 1022 keine Meldung
Fr, 27.11. 7:10 1022 keine Meldung
Fr, 27.11. 7:00 1021 + 0,3
Fr, 27.11. 6:30 1021 + 0,1
Fr, 27.11. 6:00 1021 0,0
Fr, 27.11. 5:30 1021 + 0,1
Fr, 27.11. 5:00 1021 - 0,1
Ortszeit Schneehöhe (cm)
Fr, 27.11. 7:00 0
Fr, 27.11. 1:00 0
Do, 26.11. 19:00 0
Do, 26.11. 13:00 0
Do, 26.11. 7:00 0
Do, 26.11. 1:00 0
Mi, 25.11. 19:00 0
Mi, 25.11. 13:00 0
Ortszeit Schneehöhe (cm)
Fr, 27.11. 8:00 0
Fr, 27.11. 7:50 0
Fr, 27.11. 7:40 0
Fr, 27.11. 7:30 0
Fr, 27.11. 7:20 0
Fr, 27.11. 7:10 0
Fr, 27.11. 7:00 0
Fr, 27.11. 6:30 0
Fr, 27.11. 6:00 0
Fr, 27.11. 5:30 0
Fr, 27.11. 5:00 0
Link zu dieser Seite / Seite empfehlen

Das Wetter in ...